SCP
0 0 0 0 0 0 0 0 0 0 0 0 0 0 0 0 0 0 0 0 0 0 0 0 0 0 0 0 0 0 0 0 0 0 0 0 0 0 0 0 0 0 0
0 0 0 0 0 0 0 0 0 0 0 0 0 0 0 0 0 0 0 0 0 0 0 0 0 0 0 0 0 0 0 0 0 0 0 0 0 0 0 0 0 0 0
0 0 0 0 0 0 0 0 0 0 0 0 0 0 0 0 0 0 0 0 0 0 0 0 0 0 0 0 0 0 0 0 0 0 0 0 0 0 0 0 0 0 0
0 0 0 0 0 0 0 0 0 0 0 0 0 0 0 0 0 0 0 0 0 0 0 0 0 0 0 0 0 0 0 0 0 0 0 0 0 0 0 0 0 0 0
0 0 0 0 0 0 0 0 0 0 0 0 0 0 0 0 0 0 0 0 0 0 0 0 0 0 0 0 0 0 0 0 0 0 0 0 0 0 0 0 0 0 0
0 0 0 0 0 0 0 0 0 0 0 0 0 0 0 0 0 0 0 0 0 0 0 0 0 0 0 0 0 0 0 0 0 0 0 0 0 0 0 0 0 0 0
0 0 0 0 0 0 0 0 0 0 0 0 0 0 0 0 0 0 0 0 0 0 0 0 0 0 0 0 0 0 0 0 0 0 0 0 0 0 0 0 0 0 0
0 0 0 0 0 0 0 0 0 0 0 0 0 0 0 0 0 0 0 0 0 0 0 0 0 0 0 0 0 0 0 0 0 0 0 0 0 0 0 0 0 0 0
0 0 0 0 0 0 0 0 0 0 0 0 0 0 0 0 0 0 0 0 0 0 0 0 0 0 0 0 0 0 0 0 0 0 0 0 0 0 0 0 0 0 0
0 0 0 0 0 0 0 0 0 0 0 0 0 0 0 0 0 0 0 0 0 0 0 0 0 0 0 0 0 0 0 0 0 0 0 0 0 0 0 0 0 0 0
0 0 0 0 0 0 0 0 0 0 0 0 0 0 0 0 0 0 0 0 0 0 0 0 0 0 0 0 0 0 0 0 0 0 0 0 0 0 0 0 0 0 0
0 0 0 0 0 0 0 0 0 0 0 0 0 0 0 0 0 0 0 0 0 0 0 0 0 0 0 0 0 0 0 0 0 0 0 0 0 0 0 0 0 0 0
0 0 0 0 0 0 0 0 0 0 0 0 0 0 0 0 0 0 0 0 0 0 0 0 0 0 0 0 0 0 0 0 0 0 0 0 0 0 0 0 0 0 0
0 0 0 0 0 0 0 0 0 0 0 0 0 0 0 0 0 0 0 0 0 0 0 0 0 0 0 0 0 0 0 0 0 0 0 0 0 0 0 0 0 0 0
0 0 0 0 0 0 0 0 0 0 0 0 0 0 0 0 0 0 0 0 0 0 0 0 0 0 0 0 0 0 0 0 0 0 0 0 0 0 0 0 0 0 0
0 0 0 0 0 0 0 0 0 0 0 0 0 0 0 0 0 0 0 0 0 0 0 0 0 0 0 0 0 0 0 0 0 0 0 0 0 0 0 0 0 0 0
0 0 0 0 0 0 0 0 0 0 0 0 0 0 0 0 0 0 0 0 0 0 0 0 0 0 0 0 0 0 0 0 0 0 0 0 0 0 0 0 0 0 0
0 0 0 0 0 0 0 0 0 0 0 0 0 0 0 0 0 0 0 0 0 0 0 0 0 0 0 0 0 0 0 0 0 0 0 0 0 0 0 0 0 0 0
0 0 0 0 0 0 0 0 0 0 0 0 0 0 0 0 0 0 0 0 0 0 0 0 0 0 0 0 0 0 0 0 0 0 0 0 0 0 0 0 0 0 0
0 0 0 0 0 0 0 0 0 0 0 0 0 0 0 0 0 0 0 0 0 0 0 0 0 0 0 0 0 0 0 0 0 0 0 0 0 0 0 0 0 0 0
0 0 0 0 0 0 0 0 0 0 0 0 0 0 0 0 0 0 0 0 0 0 0 0 0 0 0 0 0 0 0 0 0 0 0 0 0 0 0 0 0 0 0
0 0 0 0 0 0 0 0 0 0 0 0 0 0 0 0 0 0 0 0 0 0 0 0 0 0 0 0 0 0 0 0 0 0 0 0 0 0 0 0 0 0 0
-0 -0 -0 0 0 0 0 0 0 0 0 0 0 0 0 0 0 0 0 0 0 0 0 0 0 0 0 0 0 0 0 0 0 0 0 0 0 0 0 0 0 0 0
-0 -0 -0 0 0 0 0 0 0 0 0 0 0 0 0 0 0 0 0 0 0 0 0 0 0 0 0 0 0 0 0 0 0 0 0 0 0 0 0 0 0 0 0
-0 -0 -0 0 0 0 0 0 0 0 0 0 0 0 0 0 0 0 0 0 0 0 0 0 0 0 0 0 0 0 0 0 0 0 0 0 0 0 0 0 0 0 0
0 0 0 0 0 0 0 0 0 0 0 0 0 0 0 0 0 0 0 0 0 0 0 0 0 0 0 0 0 0 0 0 0 0 0 0 0 0 0 0 0 0 0
Wind_Speed
1 1 1 1 1 1 2 1 1 1 2 2 2 2 2 2 3 3 3 5 6 6 7 7 7 6 6 6 6 6 7 7 7 7 7 7 7 7 7 6 7 7 6
0 1 1 1 1 1 2 2 2 1 1 2 2 2 2 2 2 4 3 3 5 6 7 7 6 6 6 6 6 6 6 6 6 6 6 6 6 6 5 5 5 5 5
1 1 1 0 0 1 2 2 2 1 1 2 2 2 2 2 2 3 3 3 3 5 6 6 6 6 5 6 6 6 6 5 5 5 5 5 5 4 4 4 4 4 3
1 1 1 0 0 1 1 2 2 2 2 1 1 2 2 2 2 2 2 2 2 2 3 5 5 5 5 5 5 5 5 5 4 4 4 4 3 3 3 3 3 3 3
1 1 1 1 1 1 1 2 2 2 3 2 1 2 2 2 2 2 2 2 3 3 2 3 4 4 4 4 4 4 4 4 3 3 3 3 2 2 2 1 1 1 1
1 1 1 1 1 2 1 2 3 2 2 2 2 2 2 1 1 2 2 2 2 3 3 3 2 2 3 3 3 3 3 3 2 2 2 2 2 2 1 1 1 1 0
1 1 1 1 1 2 2 2 3 3 1 2 2 2 2 1 1 1 2 2 2 3 3 3 2 1 1 3 2 2 2 2 2 2 2 2 2 2 2 2 2 2 2
1 1 2 1 2 2 2 2 3 2 1 1 2 2 1 1 1 1 1 2 2 2 2 2 2 1 1 1 1 1 1 2 3 3 3 3 3 4 3 4 4 4 4
1 1 2 2 2 2 2 2 3 3 2 1 1 2 2 2 0 1 0 1 1 1 1 1 1 1 1 1 1 1 1 2 3 4 5 4 4 5 5 5 5 5 5
2 1 2 2 2 2 3 3 2 2 3 2 1 0 1 2 2 1 1 0 1 1 1 0 0 0 1 1 1 2 1 2 4 5 6 6 6 6 6 6 6 6 6
1 2 2 2 2 2 3 3 2 2 2 2 2 1 1 1 1 2 2 1 1 1 1 1 1 1 1 1 1 2 2 3 5 6 7 7 7 7 7 7 7 7 7
1 1 2 1 2 2 3 3 3 3 2 2 2 1 1 2 1 1 1 1 2 2 1 1 1 1 1 1 2 2 2 4 6 7 8 8 8 8 8 8 8 8 8
1 2 2 2 2 2 3 3 3 3 3 3 2 2 1 1 2 1 2 1 1 1 1 2 2 2 1 1 1 2 3 5 7 8 9 9 8 8 8 8 8 9 9
2 2 2 2 2 2 2 3 2 2 2 2 2 2 1 1 1 1 2 2 1 2 2 3 2 2 1 1 2 3 3 5 6 8 9 9 8 7 8 9 9 10 10
2 2 2 3 3 3 3 3 2 3 3 2 2 2 2 1 1 1 1 3 3 2 4 3 2 2 2 2 3 2 3 6 7 8 8 9 8 7 8 9 10 10 10
2 3 2 2 3 3 4 3 3 3 3 2 2 2 1 1 1 1 1 1 1 2 3 2 2 2 2 2 4 3 3 7 8 8 8 8 8 8 8 10 10 10 10
2 3 3 2 2 3 3 3 3 4 3 2 2 3 2 2 1 1 1 1 1 1 3 3 1 1 2 3 3 3 3 4 4 8 9 8 8 9 9 10 11 11 11
2 2 2 3 2 2 3 4 4 3 4 4 3 3 3 2 2 2 2 2 2 2 2 4 2 2 3 3 3 3 4 3 3 7 8 9 9 9 10 10 11 11 11
3 2 2 3 3 3 3 3 4 3 4 4 4 3 3 3 3 2 2 2 2 2 2 2 3 2 2 2 2 3 4 3 4 5 8 9 9 10 11 11 11 12 12
3 3 3 3 2 2 3 3 3 3 3 3 3 4 4 4 4 3 3 3 2 2 1 2 2 2 2 2 2 2 3 3 4 4 6 7 9 10 12 12 11 11 11
3 2 2 2 2 2 3 3 3 2 3 2 2 2 3 4 4 4 3 3 3 2 2 2 3 3 3 2 3 2 4 3 4 3 3 4 4 4 6 9 10 10 11
2 2 3 3 2 2 3 3 3 2 2 3 3 2 2 3 4 5 5 5 5 4 3 3 3 4 5 4 3 3 3 3 5 3 3 4 3 4 5 5 10 12 12
3 3 3 3 3 3 4 3 4 3 3 3 3 3 3 3 3 3 4 5 5 7 7 5 5 5 5 4 4 4 4 4 5 3 3 5 3 5 5 6 11 12 12
2 2 2 2 2 2 3 3 3 3 3 3 3 3 3 3 3 3 3 3 4 4 6 5 5 5 5 4 5 5 5 4 4 3 3 4 3 4 4 4 9 11 11
2 2 2 2 2 2 3 3 3 2 2 3 3 3 3 3 5 5 3 3 4 4 5 7 7 7 7 7 5 2 2 3 4 3 2 2 2 3 4 4 5 8 9
1 2 2 2 2 2 3 3 3 2 2 2 2 2 4 4 5 5 4 4 5 4 3 4 4 5 5 5 6 4 3 3 3 3 2 2 2 2 3 3 2 3 4
Wind_Direction
133 135 144 140 156 150 168 177 182 161 163 147 137 130 132 116 105 102 106 118 129 133 135 132 131 129 124 121 121 120 116 116 114 110 104 102 99 94 89 87 81 71 68
68 105 103 103 140 160 175 172 159 147 125 119 118 107 96 92 100 111 115 113 120 131 131 135 137 136 133 126 123 122 123 120 119 117 112 107 105 100 92 87 82 77 68
91 97 84 50 200 161 161 140 128 118 107 103 107 97 85 82 77 100 112 120 123 122 128 133 137 140 139 134 131 125 125 124 122 120 117 112 105 101 94 88 80 81 67
124 132 131 197 352 106 123 136 134 120 111 103 105 102 85 82 76 81 91 106 116 119 122 129 132 137 140 140 138 135 130 129 125 127 127 123 120 115 105 94 86 80 64
162 171 162 181 143 102 122 146 125 122 122 113 104 87 88 91 94 96 94 92 103 108 105 111 119 129 139 148 147 145 142 139 136 137 145 145 146 148 147 138 120 92 57
171 161 151 156 132 117 114 122 117 99 114 124 99 73 66 87 99 109 113 95 96 97 95 97 97 103 119 140 150 161 161 157 167 173 176 173 180 185 202 214 208 239 300
182 157 151 133 136 136 142 132 121 111 105 108 95 73 37 60 99 104 105 101 95 95 93 88 89 86 105 108 122 151 180 187 198 214 225 221 220 221 240 244 239 244 258
172 169 158 150 138 132 135 139 127 125 140 136 128 129 108 33 31 62 85 108 112 99 101 98 101 106 114 113 127 145 203 234 242 247 256 252 243 244 252 258 251 251 258
166 171 167 156 155 145 151 152 146 144 160 183 141 139 146 178 144 356 71 98 110 107 105 104 118 112 121 119 140 157 206 269 264 262 257 260 256 257 256 262 262 261 262
173 177 182 171 170 158 153 159 144 133 149 166 171 59 137 140 147 152 320 36 94 138 169 167 128 174 147 142 157 171 194 267 269 269 266 266 264 263 264 266 268 271 270
172 176 182 175 172 160 155 153 151 150 151 162 164 149 71 66 118 149 207 254 309 271 218 213 207 210 195 180 176 182 211 255 265 269 272 272 277 273 272 272 273 273 276
184 176 167 171 167 157 160 163 161 162 165 162 154 148 157 159 180 157 182 211 246 263 264 242 215 211 206 193 192 194 230 258 267 272 274 279 282 284 278 278 279 279 276
196 198 171 167 161 158 155 154 153 161 169 171 171 173 177 183 174 166 156 201 259 281 268 258 231 212 211 175 194 224 247 265 272 273 275 282 286 291 285 284 282 282 281
196 196 176 171 167 162 159 152 153 165 163 167 176 174 180 199 169 161 164 165 241 283 258 248 245 217 209 192 226 244 252 268 279 280 280 284 289 292 287 285 283 281 279
177 176 181 176 174 171 168 162 167 172 170 174 178 179 186 195 179 178 175 171 178 235 253 239 233 224 230 220 228 235 242 257 272 279 282 286 283 281 279 279 278 277 276
174 169 179 179 183 180 171 168 170 173 177 188 179 172 187 191 182 181 184 196 194 210 247 242 249 246 242 253 248 250 250 261 260 266 274 277 275 272 274 276 276 274 273
167 173 173 173 182 185 174 171 178 171 176 186 187 184 190 188 187 194 196 203 220 212 252 278 285 273 253 255 259 258 257 249 253 261 268 275 277 274 273 275 276 276 273
170 173 168 175 187 193 181 174 181 179 183 191 196 188 196 191 190 199 200 215 227 224 229 268 282 281 265 254 256 268 271 266 256 261 267 271 274 276 274 273 274 275 274
170 170 173 182 189 191 186 179 183 186 191 193 194 194 202 194 205 206 207 218 229 241 234 246 273 282 281 269 275 280 276 273 272 269 265 266 271 276 275 275 274 273 272
175 176 181 188 190 190 187 183 187 192 193 196 203 207 207 204 207 206 215 217 222 231 239 245 266 272 271 265 261 269 281 272 275 276 266 269 273 276 276 274 273 272 272
182 176 177 184 191 191 188 182 183 191 199 207 217 219 212 210 219 226 229 218 215 225 233 246 259 266 263 252 249 257 273 284 276 261 262 263 265 264 268 271 269 267 270
177 173 183 189 197 204 190 193 195 198 204 209 221 230 230 217 222 241 252 248 240 232 235 244 258 257 260 253 253 258 266 281 279 257 256 270 257 264 264 261 269 273 273
180 184 191 193 197 189 189 199 214 211 209 216 219 225 238 237 238 223 245 255 254 255 251 247 253 254 254 246 244 250 249 257 263 264 269 274 257 260 266 271 276 275 276
175 182 186 182 191 197 200 211 223 217 217 221 222 224 227 232 232 237 234 240 251 254 251 248 245 250 252 244 236 244 250 263 276 267 238 263 268 266 281 275 275 275 277
171 175 174 177 191 211 213 220 228 209 215 228 234 234 233 229 248 254 245 247 262 265 271 268 270 272 272 266 258 253 258 271 282 274 233 237 266 287 279 270 271 278 282
171 169 170 185 199 216 223 224 226 203 218 231 237 243 250 253 258 259 245 240 253 261 267 279 281 281 274 261 253 230 221 248 275 272 226 225 265 307 293 278 281 293 288